FENGYUN 1C DEB

Satellite information

Favourite Embed

Satellite Type and Status

DEBRISIN ORBIT

Key statistics

Satellite FENGYUN 1C DEB at a glance.

Uptime

9664

Days in orbit

Revolutions

≈ 14.1

Per day

Orbit

SSO

Sun Synchronous Orbit

Inclination

98.7

Latest

Satellite identification and parameters

Extended collection of information and parameters for FENGYUN 1C DEB.

Object identification

Identified? True

Debris? True

Object name: FENGYUN 1C DEB

International designator: 1999-025ELJ

Object number (NORAD): 37693

Object ID (CCSDS): 37693

Country: PEOPLES REPUBLIC OF CHINA (PRC)

Current information (Y/N): Y

RCS size: SMALL

Orbital parameters

Period: 102.246 minutes

Inclination: 98.6893 deg

SMA: 7243.086 km

Apoapsis: 916.357 km

Periapsis: 813.546 km

RAAN: 297.1327 deg

Eccentricy: 0.0070972

Argument of periapsis: 219.0426 deg

Mean anomaly: 294.9447 deg

Mean motion: 14.08371607 rev/day

Mean motion (dot): 0.00001113 rev/day2

B* drag term: 0.00065935812 1/REarth

Two-line elements (TLE)

Creation date: Oct. 23, 2025, 2:46 a.m.

Reference frame: TEME

Reference center: EARTH

Epoch: Oct. 22, 2025, 11:44 a.m. UTC

TLE line 0: 0 FENGYUN 1C DEB

TLE line 1: 1 37693U 99025ELJ 25295.48897473 .00001113 00000-0 65936-3 0 9994

TLE line 2: 2 37693 98.6893 297.1327 0070972 219.0426 294.9447 14.08371607614279

Live tracking on map

Real-time ground track for satellite FENGYUN 1C DEB.

In-orbit conjunctions

A list of the most updated potential collisions computed for object FENGYUN 1C DEB.

Target Orbit TCA Probability of collision Miss distance Type
THOR ABLESTAR DEB LEO 2025-07-10 06:36:25 0.0004157303 17.0 (m) DEBRIS
DELTA 1 DEB SSO 2024-12-03 07:26:13 0.0001665209 75.0 (m) DEBRIS

Associated space launch

Chinese polar orbiting meteorological satellite

FENGYUN 1C DEB was lifted into orbit during the mission ‘Long March 4B | Feng Yun 1C’, on board a Long March 4B space rocket.

The launch took place on May 10, 1999, 1:33 a.m. from Launch Complex 7.

For more information about the launch, click the button.

Launch to space Long March 4B | Feng Yun 1C
Long March 4B | Feng Yun 1C

Agency: N/A

Status: Launch Successful

Launch date: May 10, 1999, 1:33 a.m. UTC

Rocket: Long March 4B

Launch pad: Launch Complex 7

Location: Taiyuan Satellite Launch Center, People's Republic of China

...

Latest news about this satellite

There are no fresh news available about this satellite. Check back as we update our databases every day.


Newsletter sign-up

Weekly statistics, charts and insights to help you stay on top of the space industry.